Wetbulb
75.05 76.83 77.85 78.14 77.62 77.43 77.18 77.13 76.99 76.79 77.04 76.78 76.60 76.79 77.17 77.05 76.92 76.96 77.31 77.15 77.10 76.97 77.02 76.91 77.35 77.19 77.41 76.78 76.78 76.66 76.66 76.41 76.85 76.91 76.71 77.38 77.22 77.21 77.29 77.47 77.72 77.45 77.01
76.55 77.30 78.00 78.25 77.93 77.51 77.26 77.12 77.17 77.09 77.06 77.22 77.31 77.53 77.12 77.12 77.05 77.23 77.51 76.99 76.99 76.77 77.11 76.99 76.86 77.31 77.31 77.13 76.61 76.88 76.91 76.22 76.00 76.42 76.56 77.41 77.26 76.83 76.81 76.93 76.19 77.33 76.91
76.43 76.46 76.94 78.32 78.25 77.39 77.33 77.39 77.39 77.36 77.31 77.39 77.55 77.20 76.72 76.62 76.88 77.27 77.17 76.95 76.61 76.22 76.14 75.95 75.78 75.64 75.91 76.38 76.59 76.52 76.32 76.65 76.47 76.63 77.02 76.70 76.10 76.46 76.36 76.20 76.37 76.83 76.88
76.61 77.05 77.30 77.93 78.27 77.31 77.14 77.44 77.55 77.36 77.33 77.47 77.43 77.06 76.60 76.79 77.06 76.79 76.55 76.05 75.64 75.14 74.67 74.30 73.73 73.53 73.44 73.84 74.26 74.56 75.09 75.33 75.94 76.34 77.19 76.46 75.94 76.71 76.44 76.61 76.40 77.05 76.78
76.09 76.48 77.61 77.90 78.05 77.39 77.30 77.48 77.58 77.05 76.86 76.99 76.97 76.51 76.13 75.75 75.20 75.06 74.67 74.17 74.03 73.70 73.49 73.54 73.90 74.67 75.17 74.84 74.23 73.58 73.75 74.09 74.72 76.56 77.97 78.35 77.32 76.80 76.31 76.47 76.39 76.99 77.18
74.70 75.27 77.14 78.01 77.47 77.68 77.21 77.30 77.30 77.32 76.88 76.45 76.00 75.44 75.06 74.84 74.86 74.89 74.64 74.34 74.37 74.48 74.89 75.50 75.72 75.59 75.50 75.59 75.81 76.07 75.58 74.70 74.64 76.56 77.61 76.97 76.96 76.57 76.46 77.01 75.91 76.70 77.21
74.45 75.49 76.22 78.11 77.11 77.43 77.15 76.91 76.89 76.76 76.53 76.37 76.15 75.47 75.22 74.78 74.75 74.81 75.14 75.56 75.94 76.30 76.35 76.55 76.44 76.50 76.53 76.58 76.58 76.69 76.43 76.27 75.51 76.30 76.51 77.04 76.77 75.30 76.42 76.81 76.95 76.61 76.93
74.45 75.47 76.00 77.46 76.97 76.76 76.65 77.00 76.78 76.40 76.10 75.77 75.71 75.47 75.55 75.80 75.61 76.05 76.35 76.63 76.71 76.88 76.98 76.89 77.20 77.33 77.30 77.35 77.24 77.29 77.31 77.24 76.59 75.62 76.51 77.21 75.72 74.71 75.22 77.08 77.45 77.35 77.36
74.85 75.22 76.06 76.16 77.01 76.97 76.70 76.84 76.30 75.69 75.58 75.55 75.61 75.61 75.97 76.27 76.58 77.07 77.37 77.40 77.25 77.92 77.92 78.00 78.10 78.33 78.00 77.95 77.90 77.82 77.87 77.70 77.36 77.05 76.09 76.98 76.21 75.34 76.30 76.31 76.75 77.28 77.37
75.07 75.04 75.51 76.28 75.99 75.75 76.02 76.87 76.13 75.64 75.67 75.86 75.97 76.28 76.58 77.06 77.36 77.47 77.64 77.30 76.82 77.80 78.31 78.80 78.67 78.75 78.45 78.06 77.86 77.88 77.50 77.81 77.51 77.19 77.41 77.56 76.51 76.13 76.67 76.95 77.47 77.57 77.85
73.46 74.75 75.99 75.79 76.33 76.48 75.65 77.29 76.42 76.43 76.61 76.63 76.97 76.86 77.49 78.47 78.92 78.39 78.21 78.23 78.49 78.81 79.23 78.82 78.91 79.12 79.17 79.07 78.42 77.45 77.22 77.84 78.39 77.95 77.68 77.54 76.16 76.35 76.30 76.20 76.66 77.25 77.16
72.51 73.50 75.18 75.83 75.45 75.85 74.54 76.03 76.58 76.88 76.74 77.36 77.75 78.45 78.45 79.20 79.27 77.54 78.28 77.73 78.47 78.92 79.13 79.15 79.06 79.44 79.12 79.03 78.83 78.30 78.34 79.42 78.89 77.89 78.08 76.59 75.99 76.54 76.37 75.58 76.50 77.08 76.83
73.42 74.26 74.91 75.64 76.09 75.24 74.89 75.68 76.22 75.88 76.07 76.22 77.43 77.97 78.65 78.55 79.76 78.77 79.13 79.26 79.56 79.49 79.45 80.00 79.72 79.41 78.07 79.09 80.44 80.29 80.24 79.14 78.94 79.14 78.83 76.16 75.53 75.25 75.96 76.34 76.38 76.64 76.61
73.47 74.43 75.38 75.56 75.86 75.83 75.58 75.55 75.83 75.25 75.71 75.60 77.03 78.01 77.98 77.74 78.82 78.36 78.65 78.89 80.00 79.60 79.22 80.46 80.11 79.55 79.67 79.64 79.94 79.47 79.08 79.03 78.71 79.44 78.84 76.11 75.84 75.87 76.72 77.06 76.66 76.49 75.93
73.14 74.34 75.26 76.22 76.34 76.27 76.51 75.85 75.81 75.58 75.19 75.73 76.75 77.34 78.17 77.66 77.81 78.50 79.09 78.73 78.87 79.34 79.41 79.30 79.64 79.16 79.37 79.24 79.39 79.34 78.81 78.76 78.51 79.44 79.37 76.71 76.40 76.56 77.00 77.01 77.12 76.22 75.86
73.22 73.92 75.09 75.70 76.84 76.92 76.54 76.92 75.94 76.10 76.33 76.93 77.07 77.67 78.32 77.14 77.82 78.39 78.52 78.09 78.52 79.27 78.34 77.96 78.89 79.18 79.13 78.83 79.13 78.75 78.95 79.08 78.45 79.37 79.28 78.41 76.55 76.20 76.65 76.89 76.72 75.94 75.20
73.50 73.84 73.98 75.25 76.15 76.95 76.92 76.73 76.25 76.29 76.38 76.56 77.21 78.34 79.03 79.12 79.01 79.55 78.17 77.94 78.94 79.86 78.97 78.43 80.45 79.63 78.13 79.08 78.46 79.06 78.86 79.59 78.76 78.39 78.74 78.27 77.48 77.85 77.93 77.09 76.22 75.76 74.87
73.74 74.62 74.73 73.89 74.53 75.99 76.42 76.34 75.96 76.33 76.67 76.94 77.77 78.25 78.91 79.60 80.31 79.89 78.17 78.53 80.51 79.87 79.67 78.51 78.64 77.46 79.03 78.97 79.32 78.70 79.84 79.55 78.74 79.07 78.29 77.91 78.90 78.27 77.40 76.59 75.95 75.26 74.30
74.60 75.06 75.32 74.69 74.39 75.62 76.95 76.39 76.73 77.60 77.37 77.36 77.71 77.89 79.99 79.72 79.83 79.88 77.89 79.33 80.11 79.12 79.29 78.50 79.26 78.85 78.31 78.48 77.54 79.27 78.61 78.28 78.50 77.92 78.53 78.11 78.92 78.83 78.46 76.04 75.70 74.67 74.58
74.84 75.43 76.00 75.62 75.77 76.44 76.46 76.89 76.52 76.82 77.30 77.44 77.23 77.43 78.60 79.34 80.39 79.74 78.11 79.15 79.79 78.15 78.74 79.10 79.28 78.98 76.87 78.52 77.22 77.45 79.20 78.33 78.41 78.19 78.28 78.13 78.96 78.61 78.55 79.60 77.96 75.28 73.93
74.81 75.40 76.04 75.80 76.67 76.17 75.77 75.10 75.33 75.10 76.08 76.36 76.33 77.42 78.53 79.11 79.82 80.28 78.25 79.08 79.18 78.09 78.32 78.14 78.31 76.87 74.51 79.81 76.69 76.03 76.86 78.00 77.79 78.06 78.49 78.07 78.55 78.69 79.75 79.19 78.31 77.74 74.08
74.04 75.21 75.94 76.22 76.86 76.92 76.06 76.03 75.83 75.80 75.45 75.63 76.18 76.98 77.86 79.14 78.99 79.44 79.73 78.47 78.43 78.56 78.63 78.87 77.63 74.64 76.06 79.22 75.85 74.73 74.17 74.12 75.54 77.07 77.89 77.75 77.86 78.55 78.41 79.04 78.93 78.38 78.35
73.48 74.45 75.28 76.59 76.80 77.40 77.55 76.59 76.56 76.88 76.75 75.09 75.38 76.08 77.31 79.75 79.80 80.02 80.18 79.78 78.92 79.63 76.71 79.02 77.40 77.16 75.41 77.45 78.51 74.75 71.38 71.08 73.38 75.50 76.82 78.11 78.27 77.52 78.35 78.53 78.97 78.80 78.41
72.08 73.60 74.85 76.04 76.72 77.12 77.93 77.64 78.61 74.75 73.69 74.01 74.04 74.99 77.22 79.41 79.64 80.09 80.43 80.36 80.02 77.65 79.24 78.74 78.72 77.36 76.93 74.91 77.53 77.53 77.68 76.33 71.41 70.81 74.60 76.06 77.43 77.21 77.96 78.25 78.09 78.55 78.41
72.20 72.34 73.35 74.99 76.25 77.48 77.79 78.02 76.28 76.15 74.78 75.27 73.69 76.48 79.28 79.41 79.88 79.97 80.30 80.55 79.91 79.25 79.57 80.12 79.30 78.51 77.43 76.23 75.36 76.86 77.82 76.72 77.17 73.09 70.53 73.90 76.57 76.49 77.86 77.34 77.72 77.85 78.07
72.35 72.55 72.93 74.10 76.00 76.83 76.83 77.08 78.49 78.62 77.16 74.42 74.62 75.22 76.12 76.88 78.11 80.03 80.16 80.62 80.68 80.46 80.19 80.01 80.45 80.11 79.28 78.57 77.71 77.99 75.93 75.00 74.24 74.03 72.36 73.59 74.19 75.51 77.35 77.60 77.78 77.82 77.68
MSLP
1014.77 1015.69 1016.43 1016.66 1016.88 1017.14 1017.36 1017.52 1017.77 1017.96 1018.14 1018.30 1018.47 1018.53 1018.57 1018.64 1018.79 1018.93 1018.94 1019.05 1019.11 1019.17 1019.29 1019.31 1019.32 1019.30 1019.29 1019.32 1019.30 1019.38 1019.42 1019.45 1019.35 1019.31 1019.32 1019.34 1019.34 1019.36 1019.34 1019.50 1019.17 1018.51 1019.56
1014.41 1015.44 1016.59 1016.82 1017.06 1017.27 1017.51 1017.75 1018.03 1018.19 1018.31 1018.45 1018.59 1018.68 1018.82 1018.82 1018.96 1019.08 1019.08 1019.32 1019.30 1019.35 1019.38 1019.51 1019.53 1019.49 1019.46 1019.42 1019.49 1019.49 1019.46 1019.51 1019.49 1019.42 1019.41 1019.41 1019.50 1019.63 1019.50 1019.55 1019.43 1019.14 1019.82
1014.53 1015.45 1016.32 1016.93 1017.16 1017.42 1017.70 1017.99 1018.21 1018.30 1018.42 1018.57 1018.68 1018.89 1019.07 1019.13 1019.18 1019.25 1019.40 1019.45 1019.46 1019.49 1019.59 1019.68 1019.69 1019.72 1019.70 1019.67 1019.68 1019.60 1019.60 1019.66 1019.61 1019.73 1019.35 1018.24 1018.79 1019.71 1019.80 1019.83 1019.77 1019.84 1020.05
1014.08 1015.11 1015.93 1017.05 1017.31 1017.62 1017.87 1018.17 1018.39 1018.49 1018.62 1018.78 1018.89 1019.13 1019.35 1019.44 1019.34 1019.47 1019.58 1019.58 1019.65 1019.70 1019.71 1019.73 1019.76 1019.76 1019.79 1019.86 1019.86 1019.91 1019.89 1019.85 1019.77 1019.67 1018.66 1018.36 1018.18 1019.55 1019.66 1019.77 1019.92 1019.98 1020.12
1014.22 1014.78 1016.02 1017.14 1017.48 1017.78 1018.05 1018.30 1018.49 1018.73 1018.85 1018.96 1019.11 1019.28 1019.45 1019.57 1019.59 1019.66 1019.68 1019.64 1019.68 1019.66 1019.68 1019.69 1019.69 1019.71 1019.70 1019.82 1019.93 1019.92 1019.93 1019.86 1019.73 1019.41 1018.51 1018.49 1018.38 1019.12 1019.75 1019.85 1020.08 1020.15 1020.07
1014.18 1014.64 1016.93 1017.33 1017.62 1017.90 1018.23 1018.48 1018.65 1018.86 1018.99 1019.12 1019.27 1019.42 1019.61 1019.68 1019.69 1019.69 1019.66 1019.60 1019.61 1019.59 1019.55 1019.53 1019.53 1019.55 1019.57 1019.65 1019.73 1019.75 1019.84 1019.79 1019.68 1018.30 1018.47 1018.67 1018.48 1019.29 1019.72 1019.81 1019.73 1019.87 1020.12
1014.36 1014.85 1016.66 1017.51 1017.76 1017.99 1018.31 1018.58 1018.78 1018.96 1019.08 1019.27 1019.42 1019.56 1019.66 1019.72 1019.69 1019.63 1019.56 1019.43 1019.42 1019.43 1019.39 1019.29 1019.30 1019.32 1019.38 1019.41 1019.50 1019.51 1019.52 1019.55 1019.01 1017.95 1018.04 1018.24 1018.13 1019.26 1019.61 1019.69 1019.82 1020.04 1020.19
1014.37 1014.89 1016.33 1017.59 1017.85 1018.11 1018.40 1018.65 1018.86 1019.01 1019.15 1019.32 1019.51 1019.62 1019.65 1019.69 1019.57 1019.42 1019.38 1019.26 1019.25 1019.19 1019.16 1019.12 1019.08 1019.08 1019.12 1019.12 1019.14 1019.26 1019.25 1019.24 1018.38 1017.81 1017.95 1017.69 1018.74 1019.30 1019.51 1019.65 1019.71 1019.90 1020.04
1014.57 1014.93 1015.86 1016.78 1017.64 1018.17 1018.41 1018.65 1018.85 1019.00 1019.17 1019.23 1019.41 1019.52 1019.60 1019.56 1019.34 1019.28 1019.18 1019.05 1019.00 1018.91 1018.91 1018.86 1018.72 1018.75 1018.69 1018.77 1018.75 1018.77 1018.89 1018.90 1018.32 1017.23 1017.63 1017.52 1018.29 1019.17 1019.45 1019.47 1019.68 1019.68 1019.81
1014.99 1015.09 1015.57 1016.12 1016.81 1017.14 1017.57 1018.45 1018.74 1018.94 1019.10 1019.12 1019.20 1019.31 1019.39 1019.20 1018.99 1018.93 1018.73 1018.70 1018.72 1018.61 1018.48 1018.42 1018.42 1018.30 1018.27 1018.33 1018.34 1018.44 1018.50 1018.48 1017.79 1017.11 1017.21 1017.23 1018.31 1018.84 1019.13 1019.12 1019.15 1019.26 1019.41
1015.08 1015.38 1015.59 1015.99 1016.67 1017.05 1017.14 1017.66 1018.46 1018.64 1018.80 1018.84 1018.73 1018.96 1018.85 1017.93 1017.87 1017.89 1018.25 1018.43 1018.39 1018.14 1018.13 1018.00 1018.09 1018.02 1018.00 1017.70 1017.72 1017.95 1018.10 1016.87 1016.75 1016.75 1016.70 1017.64 1018.24 1018.60 1018.83 1018.95 1018.84 1018.98 1019.04
1014.51 1014.96 1015.48 1015.86 1016.10 1016.77 1016.90 1017.28 1017.59 1017.50 1017.49 1017.59 1017.96 1018.34 1018.14 1018.03 1018.20 1018.38 1018.09 1018.13 1018.03 1017.78 1017.66 1017.56 1017.60 1017.61 1017.43 1016.22 1016.59 1017.16 1016.59 1016.42 1016.42 1016.55 1016.59 1017.62 1018.22 1018.45 1018.54 1018.64 1018.62 1018.57 1018.87
1014.19 1014.63 1015.15 1015.74 1016.07 1016.21 1016.55 1016.79 1016.94 1016.99 1017.14 1017.41 1018.07 1018.26 1017.98 1018.00 1017.80 1017.64 1017.36 1017.00 1017.01 1017.05 1016.30 1016.55 1016.56 1015.97 1016.22 1016.12 1015.95 1016.02 1016.16 1016.54 1016.14 1016.09 1016.70 1017.62 1018.03 1018.22 1018.34 1018.41 1018.40 1018.40 1018.51
1014.04 1014.54 1014.91 1015.39 1016.21 1016.28 1016.38 1016.78 1016.65 1016.77 1016.99 1017.25 1017.29 1017.85 1017.93 1017.52 1017.63 1017.59 1017.11 1017.03 1016.93 1016.51 1016.79 1016.37 1016.09 1016.30 1016.14 1016.12 1016.18 1016.24 1016.01 1015.98 1015.74 1015.86 1016.28 1017.47 1017.93 1018.16 1018.25 1018.27 1018.24 1018.32 1018.31
1013.80 1014.37 1014.82 1015.38 1016.23 1016.60 1016.90 1016.62 1016.78 1016.79 1016.83 1016.82 1017.15 1017.18 1017.40 1017.54 1017.42 1017.34 1017.25 1016.97 1016.90 1016.53 1016.28 1016.28 1016.11 1015.97 1015.84 1015.68 1015.72 1015.82 1015.55 1015.43 1015.46 1015.63 1015.67 1017.33 1017.76 1017.97 1018.06 1018.04 1018.06 1018.14 1018.20
1013.40 1014.02 1014.61 1015.23 1015.91 1016.50 1016.70 1016.94 1016.79 1016.70 1016.71 1016.93 1016.70 1016.73 1017.42 1017.47 1017.05 1016.91 1016.85 1016.64 1016.44 1016.28 1016.20 1016.24 1016.10 1015.95 1015.66 1015.28 1015.41 1015.38 1015.40 1015.14 1015.23 1015.51 1015.23 1016.73 1017.50 1017.68 1017.82 1017.84 1017.89 1017.98 1018.03
1012.87 1013.58 1014.12 1014.94 1015.34 1016.15 1016.48 1016.63 1016.69 1016.46 1016.27 1016.49 1016.42 1016.74 1016.96 1017.05 1016.80 1017.06 1016.55 1016.46 1016.18 1016.31 1016.66 1016.33 1016.03 1015.64 1015.25 1015.06 1015.29 1015.03 1014.96 1015.04 1014.87 1015.48 1015.44 1015.61 1017.02 1017.50 1017.59 1017.70 1017.82 1017.96 1018.04
1012.40 1013.17 1013.75 1014.19 1014.78 1015.57 1015.93 1016.12 1016.11 1015.97 1016.04 1015.99 1016.04 1016.09 1016.41 1016.54 1016.64 1016.61 1016.19 1016.13 1015.97 1016.20 1016.03 1015.87 1015.58 1015.22 1015.11 1014.94 1014.86 1014.58 1014.59 1014.66 1015.06 1015.29 1015.27 1015.39 1015.67 1015.90 1017.34 1017.68 1017.77 1017.91 1018.02
1012.32 1013.00 1013.65 1014.09 1014.46 1014.99 1015.53 1015.66 1015.89 1015.84 1015.97 1015.69 1015.68 1015.65 1016.15 1016.00 1016.03 1016.19 1015.73 1015.73 1016.19 1015.70 1015.67 1015.54 1015.21 1015.52 1015.02 1014.88 1014.44 1014.49 1014.53 1014.40 1014.87 1014.78 1015.30 1015.60 1015.81 1015.84 1015.82 1017.41 1017.70 1017.76 1017.82
1011.67 1012.59 1013.34 1013.83 1014.32 1014.80 1015.15 1015.56 1015.44 1015.46 1015.45 1015.46 1015.40 1015.25 1015.68 1015.88 1015.84 1015.80 1015.33 1015.71 1015.85 1015.46 1015.30 1015.32 1015.87 1015.40 1015.28 1015.02 1014.43 1014.33 1014.44 1014.31 1014.49 1014.86 1015.18 1015.09 1015.64 1015.95 1015.83 1016.37 1016.83 1017.25 1017.67
1011.23 1012.01 1012.72 1013.35 1013.82 1014.44 1014.79 1014.84 1014.88 1014.82 1014.97 1015.03 1014.96 1015.21 1015.49 1015.39 1015.38 1015.41 1014.91 1015.21 1015.51 1015.60 1015.60 1015.75 1015.69 1015.39 1014.83 1014.93 1014.44 1013.99 1014.26 1014.47 1014.40 1014.40 1014.46 1014.49 1015.09 1015.57 1015.58 1016.01 1016.14 1016.20 1017.15
1010.64 1011.40 1012.06 1012.70 1013.40 1013.98 1014.12 1014.39 1014.26 1014.34 1014.37 1014.39 1014.39 1014.70 1015.09 1015.12 1015.57 1015.10 1015.10 1015.04 1015.27 1015.10 1015.67 1015.80 1015.91 1015.20 1014.79 1015.00 1014.36 1014.09 1013.37 1013.87 1013.94 1014.13 1014.38 1014.47 1014.74 1014.77 1014.99 1015.62 1015.75 1016.27 1016.29
1009.83 1010.72 1011.42 1012.00 1012.59 1013.25 1013.43 1013.96 1014.24 1014.35 1014.53 1014.31 1014.36 1014.50 1014.44 1014.72 1014.80 1014.88 1014.97 1015.07 1015.23 1015.36 1014.82 1015.69 1015.71 1015.53 1014.72 1014.99 1015.21 1014.50 1013.53 1013.10 1013.55 1014.06 1014.48 1014.48 1014.71 1014.57 1014.57 1014.95 1015.47 1015.83 1016.23
1008.79 1009.80 1010.75 1011.52 1012.09 1012.63 1013.14 1013.15 1013.57 1013.45 1013.40 1013.41 1013.76 1013.75 1013.82 1014.19 1014.38 1014.41 1014.66 1014.83 1015.03 1014.73 1014.99 1015.37 1015.65 1015.64 1015.69 1014.83 1014.98 1015.01 1015.06 1014.72 1013.79 1013.31 1013.92 1014.40 1014.68 1014.75 1014.69 1014.61 1014.56 1015.10 1015.48
1007.83 1008.63 1009.47 1010.63 1011.47 1011.85 1012.40 1012.68 1013.02 1013.22 1012.97 1013.43 1013.56 1013.53 1014.08 1013.94 1014.15 1013.96 1014.13 1014.42 1014.69 1014.78 1014.80 1015.28 1015.64 1015.88 1015.34 1015.13 1014.77 1014.57 1015.01 1014.67 1014.88 1014.30 1013.47 1013.55 1013.86 1013.92 1014.04 1014.15 1014.01 1014.29 1014.93
1006.79 1007.58 1008.38 1009.51 1010.59 1011.28 1011.65 1012.35 1012.44 1012.40 1012.65 1012.95 1013.30 1013.23 1013.27 1013.03 1013.25 1013.69 1013.67 1014.06 1014.16 1014.39 1014.53 1014.83 1015.21 1015.41 1015.32 1015.29 1014.98 1015.28 1014.91 1014.83 1014.08 1014.03 1013.70 1013.67 1013.60 1013.66 1013.73 1013.79 1013.78 1013.83 1014.18
Wind_Speed
12 16 14 14 14 14 13 12 12 12 11 10 10 9 8 8 8 9 9 10 8 7 8 8 7 8 7 7 6 6 5 4 5 5 5 4 4 5 5 8 9 10 11
17 18 15 14 14 13 13 12 12 11 10 10 9 8 7 8 9 9 10 10 9 8 8 8 7 7 7 6 7 5 6 5 4 4 5 8 6 5 4 5 3 13 9
18 18 16 14 13 13 12 11 11 10 9 8 8 8 7 7 8 10 10 10 8 8 8 7 7 6 6 6 5 5 5 4 3 3 5 7 9 6 5 3 4 8 9
17 17 17 13 14 13 12 11 10 9 8 8 8 9 8 8 9 9 8 6 6 5 5 4 3 3 2 3 2 2 1 1 1 4 8 2 2 9 5 6 5 9 9
16 15 18 14 14 13 11 10 10 10 8 8 7 7 6 6 5 6 5 3 2 1 1 0 0 0 1 1 2 2 2 3 3 10 0 2 3 13 5 7 9 8 11
14 15 18 14 14 13 11 9 8 8 7 7 6 5 4 3 2 2 1 1 1 2 2 2 2 2 3 2 3 4 4 5 7 10 3 4 8 11 6 7 4 6 8
14 16 16 12 12 11 10 9 8 6 5 5 4 3 2 2 3 3 3 4 3 3 3 4 4 4 4 4 4 5 6 6 10 3 5 6 2 7 5 7 7 8 9
14 14 16 12 11 10 8 7 6 5 3 2 2 0 2 3 4 4 5 6 5 5 6 6 6 6 6 6 6 7 7 8 10 6 6 6 12 6 7 8 9 10 10
12 11 13 14 11 9 8 7 4 3 1 1 2 3 4 5 6 6 6 7 7 8 8 8 8 7 8 8 7 8 7 7 10 4 6 6 15 8 8 11 11 11 12
10 10 10 10 12 11 13 8 5 3 3 4 4 5 5 8 9 10 7 5 6 9 11 9 7 7 6 7 8 8 6 8 11 6 6 2 10 7 9 10 9 13 13
11 11 9 10 8 7 5 10 9 9 7 7 10 8 8 5 1 2 6 5 10 11 9 6 7 6 7 12 10 7 6 7 4 3 4 11 4 7 9 9 9 11 12
16 14 12 10 11 9 7 5 7 5 5 2 3 4 4 3 4 6 7 5 9 7 7 5 6 8 11 5 8 11 7 2 3 4 3 8 4 8 9 8 8 7 12
14 12 12 11 9 10 7 5 4 4 4 4 5 5 3 4 2 4 3 3 4 4 3 5 5 4 1 4 1 2 0 4 3 2 7 7 6 7 8 9 7 6 8
14 13 13 11 9 9 6 6 4 4 4 4 3 3 3 4 2 3 3 4 3 3 4 2 2 3 4 3 3 4 5 4 4 1 8 8 7 7 7 9 7 7 6
14 13 12 12 10 8 8 5 5 4 5 4 5 4 4 3 3 4 4 5 4 4 3 3 2 4 4 4 3 4 6 6 6 2 3 9 7 7 7 5 8 7 7
14 13 13 12 11 10 9 8 5 5 5 5 4 4 5 5 5 4 4 4 4 4 4 4 4 5 3 3 1 4 4 4 5 2 2 9 7 6 6 4 6 5 4
14 13 14 13 12 11 10 9 7 6 6 5 5 5 6 6 5 6 5 4 3 3 4 5 4 4 5 1 3 4 5 3 5 5 4 5 10 8 8 8 8 7 5
13 14 13 12 13 13 11 8 7 7 6 5 5 4 4 5 5 5 4 4 1 4 3 5 3 4 1 1 2 3 2 3 6 7 6 4 2 7 9 9 9 8 5
14 12 13 12 13 13 11 8 8 7 7 6 5 5 5 5 5 6 4 3 4 4 4 5 1 3 2 2 3 1 3 4 8 7 6 5 4 3 3 9 7 6 5
15 14 13 12 12 12 9 8 7 7 7 6 6 6 3 4 6 5 4 4 4 5 4 2 4 3 4 3 3 4 2 4 4 6 7 6 5 5 5 2 7 8 5
16 15 15 15 14 11 10 9 9 8 8 8 7 7 6 8 6 6 6 4 5 4 3 4 5 5 5 1 5 5 4 4 7 7 6 5 6 6 2 4 4 3 7
17 17 17 17 15 13 10 9 8 7 8 7 7 6 8 8 7 8 6 4 3 3 4 3 4 5 3 0 3 3 3 8 5 5 4 4 5 4 6 7 4 5 3
19 18 17 18 17 15 14 9 7 7 6 7 8 9 9 9 8 9 7 6 4 5 4 4 3 3 2 1 3 5 4 2 2 5 4 2 3 4 3 5 6 5 5
20 18 18 17 17 16 15 12 12 9 9 8 7 8 8 7 7 9 9 7 6 5 2 4 3 3 4 2 1 2 4 6 3 3 6 3 3 4 4 4 5 7 7
20 18 17 17 16 16 16 15 12 13 9 7 7 8 8 4 6 7 9 8 8 7 6 4 4 4 3 5 4 1 0 3 3 5 4 1 1 3 2 4 4 4 6
19 18 16 16 16 17 17 17 15 13 11 7 8 7 8 8 7 7 8 8 8 7 6 6 6 6 5 4 4 4 5 3 5 4 5 4 3 3 3 3 3 4 4
Wind_Direction
141 130 143 136 129 125 123 120 115 113 111 117 120 125 121 119 118 120 122 120 130 118 96 80 71 80 97 107 108 99 104 108 116 119 118 126 133 142 130 155 185 148 143
142 139 143 135 134 131 126 124 118 115 117 124 129 117 116 126 125 133 116 111 100 101 102 90 75 64 67 79 90 78 116 118 115 123 140 142 138 124 136 162 233 101 135
143 135 150 139 136 132 129 125 121 125 126 123 119 107 101 101 102 84 86 89 88 82 82 83 84 78 62 55 67 76 72 73 100 110 226 203 125 132 145 149 99 126 139
144 150 144 138 135 135 134 130 126 116 116 108 93 98 98 88 78 81 79 77 77 76 76 77 76 72 77 81 75 78 80 102 150 219 227 74 67 127 159 148 157 155 158
147 151 123 140 137 138 137 133 130 124 118 113 105 96 89 83 77 79 80 80 76 88 78 17 278 239 230 192 188 213 217 245 250 252 206 275 243 121 158 166 166 180 189
150 143 131 145 143 138 139 132 126 126 129 124 115 107 97 85 56 44 31 318 276 279 286 290 288 275 267 250 225 230 229 237 254 242 277 132 280 109 156 180 212 189 188
152 128 146 152 149 143 140 139 137 134 133 124 123 118 93 37 3 340 314 290 285 284 282 280 283 282 278 270 251 240 238 239 259 242 229 269 107 133 186 197 197 194 188
150 147 136 147 156 156 152 151 147 141 133 140 141 72 349 347 328 304 296 290 294 287 276 270 271 273 271 264 258 251 245 246 236 231 244 229 107 160 196 211 213 205 195
155 156 151 164 163 163 165 164 161 174 197 267 295 307 317 308 292 289 289 285 293 293 286 282 282 266 259 258 259 263 253 240 280 270 256 228 133 175 217 219 224 217 205
164 162 164 164 172 187 166 173 190 214 248 272 282 289 302 278 245 241 254 227 301 295 291 289 276 273 264 253 245 247 252 246 242 236 218 192 134 190 231 252 242 212 207
180 173 180 168 179 176 197 156 192 210 225 242 236 216 250 254 1 306 73 324 304 288 278 271 272 263 261 241 224 224 231 247 249 254 273 101 159 228 242 254 266 214 210
183 184 183 198 180 184 200 199 205 211 240 268 303 316 273 342 334 305 282 266 269 288 267 239 253 249 237 259 183 188 226 319 242 250 252 123 206 241 249 258 259 244 215
183 185 186 188 192 192 202 193 212 213 213 196 220 252 288 308 333 313 316 331 350 172 307 213 199 247 34 304 294 292 286 228 265 217 103 141 206 235 247 268 261 266 232
187 194 188 184 185 214 194 201 221 225 207 228 196 226 234 253 337 308 324 328 285 359 325 280 321 342 278 251 259 253 218 227 226 227 126 147 205 235 253 272 250 251 259
190 196 206 185 191 213 211 220 241 234 209 216 209 209 250 279 278 286 317 298 300 315 278 271 288 295 301 252 249 240 220 221 230 218 115 147 190 219 236 249 214 222 223
193 198 197 201 196 206 220 221 234 223 211 225 226 221 235 264 278 294 271 274 287 300 315 315 323 322 319 285 198 239 247 238 213 190 139 134 169 189 195 155 136 122 122
188 196 199 197 197 201 214 217 221 230 210 223 233 225 247 261 240 271 258 265 294 323 286 251 257 224 259 246 235 226 231 212 198 181 182 157 146 161 142 126 116 109 101
197 191 198 194 193 196 200 207 225 218 230 231 231 243 231 240 242 244 233 231 319 282 290 276 276 299 296 305 285 275 213 202 142 164 183 190 207 137 151 139 135 130 123
194 189 196 196 198 192 194 207 215 224 233 242 240 233 192 263 245 251 249 234 245 272 256 270 144 299 331 312 238 169 209 181 176 164 137 179 168 200 147 130 141 128 112
190 196 198 197 202 196 194 204 219 228 234 239 238 239 195 259 247 233 231 257 261 255 229 288 324 340 303 322 310 84 177 164 157 152 161 188 161 187 211 205 173 153 142
198 196 200 198 195 198 198 202 206 217 221 232 236 240 251 256 239 235 253 200 228 243 319 259 251 235 281 199 255 184 159 178 180 183 197 205 155 203 156 173 229 190 163
203 204 201 209 199 200 202 214 218 219 230 235 231 235 243 249 238 247 256 233 232 263 202 239 269 295 220 233 305 265 195 162 195 200 209 222 186 199 205 201 198 216 210
209 204 209 207 207 205 213 204 209 230 241 228 228 231 219 228 250 234 235 254 225 259 211 206 224 255 299 195 330 320 232 131 273 152 179 206 190 224 222 200 205 206 204
210 209 211 211 208 208 204 210 211 216 225 224 231 224 229 205 245 231 227 227 232 261 262 211 194 278 274 271 200 242 324 355 322 209 171 166 213 231 210 243 199 200 204
205 208 208 211 215 214 200 214 203 223 218 230 230 228 223 206 236 218 213 221 226 234 198 246 208 233 221 289 270 309 260 235 212 298 299 143 248 187 236 216 245 226 194
209 208 209 203 209 211 202 204 212 207 214 215 218 218 229 219 192 207 231 223 233 252 240 225 217 229 255 256 294 230 253 232 241 246 254 244 286 272 288 261 234 222 216